TimeEDT,TemperatureF,Dew PointF,Humidity,Sea Level PressureIn,VisibilityMPH,Wind Direction,Wind SpeedMPH,Gust SpeedMPH,PrecipitationIn,Events,Conditions,WindDirDegrees,DateUTC
12:54 AM,64.0,54.0,70,30.23,-9999.0,SW,11.5,-,N/A,,Unknown,220,2013-08-26 04:54:00
1:54 AM,64.0,55.9,75,30.21,-9999.0,SW,11.5,-,N/A,,Unknown,220,2013-08-26 05:54:00
2:54 AM,64.0,55.9,75,30.19,-9999.0,SW,13.8,-,N/A,,Unknown,220,2013-08-26 06:54:00
3:54 AM,64.0,55.9,75,30.17,-9999.0,SW,9.2,-,N/A,,Unknown,230,2013-08-26 07:54:00
4:54 AM,64.0,55.9,75,30.17,-9999.0,SW,10.4,-,N/A,,Unknown,220,2013-08-26 08:54:00
5:54 AM,64.0,55.9,75,30.15,-9999.0,SW,12.7,-,N/A,,Unknown,220,2013-08-26 09:54:00
6:54 AM,64.9,55.9,73,30.14,-9999.0,SW,9.2,-,N/A,,Unknown,230,2013-08-26 10:54:00
7:54 AM,64.9,57.0,75,30.14,-9999.0,SW,9.2,-,N/A,,Unknown,220,2013-08-26 11:54:00
8:54 AM,64.9,57.9,78,30.12,-9999.0,SW,11.5,20.7,N/A,,Unknown,230,2013-08-26 12:54:00
9:54 AM,66.9,57.9,73,30.09,-9999.0,SW,13.8,-,N/A,,Unknown,220,2013-08-26 13:54:00
10:54 AM,71.1,59.0,66,30.08,-9999.0,SSW,12.7,20.7,N/A,,Unknown,210,2013-08-26 14:54:00
11:54 AM,75.9,59.0,56,30.05,-9999.0,WSW,11.5,24.2,N/A,,Unknown,240,2013-08-26 15:54:00
12:54 PM,79.0,60.1,52,30.03,-9999.0,SW,18.4,25.3,N/A,,Unknown,230,2013-08-26 16:54:00
1:54 PM,75.9,60.1,58,30.01,-9999.0,WSW,13.8,23.0,N/A,,Unknown,240,2013-08-26 17:54:00
2:54 PM,75.0,61.0,62,29.99,-9999.0,WSW,12.7,20.7,N/A,,Unknown,250,2013-08-26 18:54:00
3:54 PM,75.0,62.1,64,29.97,-9999.0,WSW,10.4,18.4,N/A,,Unknown,250,2013-08-26 19:54:00
4:54 PM,75.9,64.0,67,29.96,-9999.0,West,6.9,-,N/A,,Unknown,260,2013-08-26 20:54:00
5:54 PM,75.0,63.0,66,29.95,-9999.0,WSW,9.2,-,N/A,,Unknown,250,2013-08-26 21:54:00
6:54 PM,73.9,64.0,71,29.94,-9999.0,SW,11.5,-,N/A,,Unknown,230,2013-08-26 22:54:00
7:54 PM,73.0,64.0,73,29.94,-9999.0,WSW,10.4,-,N/A,,Unknown,240,2013-08-26 23:54:00
8:54 PM,71.1,64.0,78,29.95,-9999.0,WSW,9.2,-,N/A,,Unknown,240,2013-08-27 00:54:00
9:54 PM,71.1,64.0,78,29.94,-9999.0,WSW,11.5,17.3,N/A,,Unknown,240,2013-08-27 01:54:00
10:54 PM,70.0,64.0,81,29.93,-9999.0,WSW,11.5,-,N/A,,Unknown,250,2013-08-27 02:54:00
11:54 PM,69.1,64.0,84,29.91,-9999.0,SW,10.4,-,N/A,,Unknown,230,2013-08-27 03:54:00